カタログに戻る

FENGYUN 1C DEB

運用中SSO
NORAD 30115·DEBRIS·🇨🇳 China

打ち上げ May 10, 1999 から Taiyuan Satellite Launch Center

Loading…

次のパス (今後24時間)

TLE

最新Source: Space-Track

元期: Sep 14, 2026, 02:03 UTC

1 30115U 99025RU  26257.08584628  .00001169  00000-0  54961-3 0  9993
2 30115  98.6017 282.1356 0065820 345.2316  81.4491 14.20749943 12378

AllMySatでFENGYUN 1C DEBをリアルタイム追跡

Download on the App Store